Voltar ao catálogo

COSMOS 2251 DEB

AtivoLEO
NORAD 33805·DEBRIS·🇷🇺 Russia

Lançado Jun 16, 1993 de Plesetsk Cosmodrome

Loading…

Próximas Passagens (próximas 24 horas)

TLE

AtualizadoSource: Space-Track

Época: Sep 14, 2026, 09:58 UTC

1 33805U 93036AW  26257.41539771  .00000526  00000-0  11730-3 0  9997
2 33805  74.0308 146.6340 0061833 264.8665  94.5440 14.58413796932452

Acompanhe COSMOS 2251 DEB em tempo real com AllMySat

Download on the App Store